Flag for Indonesia Weather past 2 weeks in Manado, North Sulawesi, Indonesia

Now
84 °F

Passing clouds.


Feels Like: 90 °F
Forecast: 73 / 91 °F
Wind: 6 mph from North

Location: Menado / Dr. Sam Ratulangi

Current Time: Sep 5, 2015 at 6:49:15 PM

Latest Report: Sep 5, 2015 at 6:00 PM


Visibility: N/A

Pressure: 29.89 "Hg

Humidity: 66%

Dew point: 72 °F

Location of ManadoLocation

Historic Weather in Manado — Graph

°F

Manado temperature yesterday

Maximum temperature yesterday: 93 °F (at 11:00 AM)
Minimum temperature yesterday: 75 °F (at 12:00 AM)
Average temperature yesterday: 82 °F

Past Weeks' High & Low Weather Summary

 TemperatureHumidityPressure
High95 °F (Aug 25, 3:00 PM)94% (Aug 23, 5:30 AM)29.95 "Hg (Aug 23, 5:30 AM)
Low64 °F (Aug 23, 5:30 AM)28% (Sep 5, 11:00 AM)29.77 "Hg (Aug 22, 3:00 PM)
Average83 °F61%29.87 "Hg
* Reported Aug 21 5:00 PM — Sep 5 5:30 PM, Manado, Weather by CustomWeather, © 2015

Note: Actual official high and low records may vary slightly from our data, if they occured in-between our weather recording intervals... More about our weather records

Advertising

Manado weather history for previous 24 hours

 ConditionsComfort  
Time TempWeatherWind HumidityBarometerVisibility
5:30 PM
Sat, Sep 5
84 °FScattered clouds.6 mph66%29.89 "HgN/A
5:00 PM86 °FScattered clouds.7 mph59%29.86 "HgN/A
4:30 PM88 °FScattered clouds.7 mph55%29.86 "HgN/A
4:00 PM88 °FScattered clouds.7 mph55%29.83 "HgN/A
3:30 PM90 °FScattered clouds.6 mph52%29.83 "HgN/A
3:00 PM90 °FScattered clouds.5 mph49%29.83 "HgN/A
2:30 PM90 °FScattered clouds.9 mph49%29.86 "HgN/A
2:00 PM91 °FScattered clouds.7 mph46%29.86 "HgN/A
1:30 PM90 °FScattered clouds.9 mph49%29.86 "HgN/A
1:00 PM91 °FScattered clouds.12 mph44%29.86 "HgN/A
12:30 PM91 °FPassing clouds.8 mph44%29.86 "HgN/A
12:00 PM93 °FPassing clouds.9 mph44%29.89 "HgN/A
11:30 AM91 °FPassing clouds.10 mph46%29.89 "HgN/A
11:00 AM95 °FPassing clouds.2 mph28%29.89 "HgN/A
10:30 AM91 °FPassing clouds.5 mph41%29.92 "HgN/A
10:00 AM91 °FPassing clouds.5 mph44%29.92 "HgN/A
9:30 AM91 °FPassing clouds.7 mph38%29.92 "HgN/A
9:00 AM88 °FPassing clouds.9 mph43%29.92 "HgN/A
8:30 AM86 °FPassing clouds.6 mph46%29.95 "HgN/A
8:00 AM84 °FPassing clouds.5 mph55%29.95 "HgN/A
7:30 AM82 °FPassing clouds.6 mph58%29.95 "HgN/A
7:00 AM79 °FPassing clouds.6 mph61%29.92 "HgN/A
6:30 AM77 °FPassing clouds.7 mph65%29.92 "HgN/A
5:00 AM75 °FPassing clouds.7 mph69%29.89 "HgN/A
4:30 AM75 °FPassing clouds.5 mph69%29.89 "HgN/A
4:00 AM75 °FPassing clouds.5 mph69%29.89 "HgN/A
3:30 AM75 °FPassing clouds.6 mph74%29.92 "HgN/A
2:00 AM75 °FPassing clouds.5 mph78%29.92 "HgN/A
12:30 AM75 °FPassing clouds.5 mph83%29.95 "HgN/A
12:00 AM75 °FPassing clouds.6 mph83%29.95 "HgN/A
11:30 PM
Fri, Sep 4
75 °FPassing clouds.6 mph83%29.95 "HgN/A
11:00 PM77 °FPassing clouds.6 mph79%29.95 "HgN/A
10:30 PM77 °FPassing clouds.5 mph79%29.95 "HgN/A
10:00 PM77 °FPassing clouds.5 mph79%29.95 "HgN/A
9:30 PM77 °FPassing clouds.7 mph79%29.95 "HgN/A
9:00 PM77 °FPassing clouds.8 mph79%29.95 "HgN/A
8:30 PM77 °FPassing clouds.9 mph79%29.92 "HgN/A
8:00 PM79 °FPassing clouds.9 mph74%29.92 "HgN/A
7:30 PM79 °FPassing clouds.9 mph74%29.92 "HgN/A
7:00 PM81 °FPassing clouds.7 mph70%29.92 "HgN/A
6:30 PM81 °FPassing clouds.7 mph70%29.89 "HgN/A
Weather by CustomWeather, © 2015

See weather overviewHow to use our weather pages